User: anonymous   Login
Location: Caltech
(34.1382°N, 118.1253°W)
Time: 14:38:12
(UTC-07:00)
Language:

Cosmos 2333 Rocket - Orbit

View from above orbital plane
View from above orbital plane
View from above satellite
View from above satellite

Ground track
Ground track

The orbit data is extracted from the following two-line orbital elements,

1 24298U 96051B   17083.87908144 +.00000006 +00000-0 +29430-4 0  9994
2 24298 070.8470 239.7632 0017572 297.8511 062.0828 14.12486688059659
Epoch (UTC): 24 March 2017 21:05:52
Eccentricity: 0.0017572
inclination: 70.8470°
perigee height: 838 km
apogee height: 863 km
right ascension of ascending node: 239.7632°
argument of perigee: 297.8511°
revolutions per day: 14.12486688
mean anomaly at epoch: 62.0828°
orbit number at epoch: 5965

The dashed part of the orbit path shows where the satellite is in the earth's shadow,  

DLR